Flag for Poland Weather past 2 weeks in Gliwice, Poland

36 °F

Passing clouds.

Feels Like: 32 °F
Forecast: 24 / 37 °F
Wind: 5 mph from South

Location: Katowice Airport

Current Time: Nov 25, 2015 at 5:23:19 PM

Latest Report: Nov 25, 2015 at 5:00 PM

Visibility: N/A

Pressure: 29.77 "Hg

Humidity: 70%

Dew point: 27 °F

Location of GliwiceLocation

Historic Weather in Gliwice — Graph


Gliwice temperature yesterday

Maximum temperature yesterday: 36 °F (at 12:30 PM)
Minimum temperature yesterday: 27 °F (at 5:30 PM)
Average temperature yesterday: 31 °F

Past Weeks' High & Low Weather Summary

High57 °F (Nov 10, 4:00 PM)100% (Nov 11, 7:30 AM)30.33 "Hg (Nov 11, 7:30 AM)
Low25 °F (Nov 25, 12:00 AM)56% (Nov 25, 2:00 PM)29.36 "Hg (Nov 21, 12:00 AM)
Average43 °F87%29.91 "Hg
* Reported Nov 10 4:00 PM — Nov 25 4:00 PM, Gliwice, Weather by CustomWeather, © 2015

Note: Actual official high and low records may vary slightly from our data, if they occured in-between our weather recording intervals... More about our weather records


Gliwice weather history for previous 24 hours

Time TempWeatherWind HumidityBarometerVisibility
4:00 PM
Wed, Nov 25
36 °FPassing clouds.5 mph65%29.77 "HgN/A
3:30 PM37 °FPartly sunny.5 mph60%29.77 "HgN/A
3:00 PM37 °FPartly sunny.7 mph60%29.77 "HgN/A
2:30 PM37 °FScattered clouds.12 mph60%29.77 "HgN/A
2:00 PM39 °FScattered clouds.10 mph56%29.80 "HgN/A
1:30 PM37 °FPassing clouds.12 mph60%29.80 "HgN/A
1:00 PM37 °FSunny.13 mph60%29.80 "Hg10 mi
12:30 PM37 °FPassing clouds.13 mph60%29.80 "HgN/A
12:00 PM37 °FPassing clouds.10 mph60%29.80 "HgN/A
11:30 AM36 °FSunny.13 mph65%29.83 "Hg10 mi
11:00 AM36 °FSunny.12 mph65%29.83 "Hg10 mi
10:30 AM34 °FSunny.10 mph70%29.86 "Hg10 mi
10:00 AM32 °FPassing clouds.7 mph75%29.86 "HgN/A
9:30 AM30 °FClear.8 mph75%29.86 "Hg5 mi
9:00 AM28 °FClear.9 mph74%29.89 "Hg5 mi
8:00 AM27 °FClear.10 mph80%29.89 "Hg5 mi
7:30 AM25 °FClear.13 mph86%29.89 "Hg5 mi
7:00 AM27 °FClear.13 mph80%29.89 "Hg5 mi
6:30 AM25 °FClear.14 mph86%29.89 "Hg6 mi
6:00 AM25 °FClear.12 mph86%29.89 "Hg6 mi
5:00 AM25 °FClear.12 mph86%29.92 "Hg6 mi
4:30 AM25 °FClear.10 mph86%29.92 "Hg4 mi
4:00 AM25 °FIce fog.12 mph86%29.95 "Hg3 mi
3:30 AM25 °FIce fog.10 mph93%29.95 "Hg3 mi
3:00 AM25 °FIce fog.12 mph93%29.98 "Hg3 mi
2:30 AM25 °FIce fog.10 mph93%29.98 "Hg2 mi
2:00 AM25 °FIce fog.9 mph93%30.01 "Hg2 mi
1:00 AM25 °FIce fog.7 mph93%30.01 "Hg2 mi
12:00 AM25 °FIce fog.8 mph93%30.07 "Hg2 mi
11:00 PM
Tue, Nov 24
27 °FIce fog.10 mph86%30.07 "Hg1 mi
10:30 PM27 °FIce fog.8 mph86%30.09 "Hg1 mi
10:00 PM27 °FIce fog.7 mph86%30.09 "Hg1 mi
9:30 PM27 °FIce fog.8 mph86%30.09 "Hg1 mi
9:00 PM28 °FIce fog.7 mph80%30.09 "Hg2 mi
8:30 PM27 °FIce fog.7 mph86%30.12 "Hg2 mi
8:00 PM27 °FIce fog.6 mph86%30.12 "Hg3 mi
7:30 PM28 °FIce fog.7 mph80%30.12 "Hg2 mi
7:00 PM30 °FIce fog.7 mph80%30.15 "Hg2 mi
6:30 PM28 °FIce fog.6 mph86%30.15 "Hg2 mi
6:00 PM30 °FIce fog.6 mph86%30.15 "Hg3 mi
5:30 PM27 °FIce fog.2 mph86%30.15 "Hg3 mi
5:00 PM28 °FIce fog.3 mph86%30.15 "Hg3 mi
Weather by CustomWeather, © 2015

See weather overviewHow to use our weather pages